Weather in Mossendjo

Congo     2°56′47″S   12°42′36″E
temp.,
°C
wind,
m/s
gust,
m/s
humid.,
%
clouds,
%
prec.,
mm/h
press.,
hPa
HPBL,
m
1 march, mon
mon101:00+22sw129799 2.2 100928
04:00+21ne009897 3.1 100723
07:00+22e019770 3.7 100929
10:00+27sw247940 0.9 1010506
13:00+28wsw138431 4.3 1006719
16:00+28w2376100 3.5 1004379
19:00+23sw289793 4.7 1007233
22:00+22sw299985 3.3 1010281
2 march, tue
tue201:00+22w169992 7.5 1010205
04:00+21sw14100100 3.3 1009149
07:00+22sw1499100 3.3 1010238
10:00+25sw2490100 0.0 1011478
13:00+31ssw245995 0.0 10071167
16:00+30sw2472100 1.1 10061124
19:00+23ssw2395100 14.8 1008104
22:00+22w1198100 0.7 101023
3 march, wed
wed301:00+22wnw1199100 0.8 100945
04:00+22wsw1199100 0.0 100927
07:00+22wsw1299100 0.1 1010106
10:00+26ssw2385100 0.0 1010485
13:00+29sw3470100 0.0 1007876
16:00+29wsw236772 0.0 1005953
19:00+23wsw289675 7.2 1007191
22:00+23wsw2899100 0.5 1010299
4 march, thu
thu401:00+22sw2699100 7.6 1009287
04:00+22sw15100100 4.4 1008296
07:00+22wsw2799100 5.8 1010369
10:00+23sw2496100 0.1 1011383
13:00+27wsw357599 0.1 1008810
16:00+27sw257699 0.3 1006844
19:00+24ssw2694100 1.2 1008337
22:00+22ssw2898100 3.6 1011341
5 march, fri
fri501:00+22sw2799100 4.3 1011294
04:00+21wsw15100100 0.0 1009264
07:00+22nnw0099100 0.0 101150
10:00+24se1287100 0.1 1013447
13:00+24e2593100 3.5 1011401
16:00+22s2794100 0.7 1008253
19:00+21wsw129899 0.7 1010104
22:00+20nnw119999 0.0 101123